widewalls.ch alexa rank chart, widewalls.ch alexa rank daily changes

widewalls.ch alexa rank chart, widewalls.ch alexa rank daily changes

widewalls.ch
Actual rank:
71 303

RANK HISTORY

Date Rank Diff
2017/11/20 71 303 +613
2017/11/19 70 690 +1 466
2017/11/18 69 224 -782
2017/11/17 70 006 -302
2017/11/16 70 308 +367
2017/11/15 69 941 -1 310
2017/11/14 71 251 -117
2017/11/13 71 368 +1 376
2017/11/12 69 992 -466
2017/11/11 70 458 +922
2017/11/10 69 536 -623
2017/11/09 70 159 -52
2017/11/08 70 211 +176
2017/11/07 70 035 +72
2017/11/06 69 963 -701
2017/11/05 70 664 -707
2017/11/04 71 371 -671
2017/11/03 72 042 +717
2017/11/02 71 325 -57
2017/11/01 71 382 -722
2017/10/31 72 104 -563
2017/10/30 72 667 +1 524
2017/10/29 71 143 -289
2017/10/28 71 432 -777
2017/10/27 72 209 -840
2017/10/26 73 049 -449
2017/10/25 73 498 -293
2017/10/24 73 791 +632
2017/10/23 73 159 +1 716
2017/10/22 71 443 +751
2017/10/21 70 692 -67
2017/10/20 70 759 +421
2017/10/19 70 338 -996
2017/10/18 71 334 -51
2017/10/17 71 385 +1 162
2017/10/16 70 223 +3 813
2017/10/14 66 410 +309
2017/10/13 66 101 -986
2017/10/12 67 087 +988
2017/10/11 66 099 -1 430
2017/10/10 67 529 +739
2017/10/09 66 790 -1 059
2017/10/08 67 849 -1 080
2017/10/07 68 929 -405
2017/10/06 69 334 -496
2017/10/05 69 830 -605
2017/10/04 70 435 -357
2017/10/03 70 792 -1 193
2017/10/02 71 985 -110
2017/10/01 72 095 +1 725
2017/09/30 70 370 -228
2017/09/29 70 598 -207
2017/09/28 70 805 -237
2017/09/27 71 042 -1 494
2017/09/26 72 536 -334
2017/09/25 72 870 +23
2017/09/24 72 847 -203
2017/09/23 73 050 +245
2017/09/22 72 805

WIDGET FOR YOUR SITE

DOMAINS WITH THE NEAREST RANK

Domain Rank
syataqoszu.bid 71 298
tempsite.ws 71 299
lnu.edu.ua 71 300
ethereum-faucet.org 71 301
javplatform.com 71 302
widewalls.ch 71 303
xlstat.com 71 304
mexicodestinos.com 71 305
psdschools.org 71 306
upupoo.com 71 307
adprint.jp 71 308

DOMAINS WITH THE NEAREST RANK BY TLD .ch

Domain Rank
bcv.ch 69 497
pearl.ch 70 895
cembra.ch 70 954
usi.ch 70 994
cardcenter.ch 71 051
widewalls.ch 71 303
beobachter.ch 71 961
daydeal.ch 72 417
xdate.ch 73 299
luzernerzeitung.ch 74 261
bettybossi.ch 74 679